SCP
0 0 0 0 0 0 0 0 0 0 0 0 0 0 0 0 0 0 0 0 0 0 0 0 0 0 0 0 0 0 0 0 0 0 0 0 0 0 0 0 0 0 0 0 0
0 0 0 0 0 0 0 0 0 0 0 0 0 0 0 0 0 0 0 0 0 0 0 0 0 0 0 0 0 0 0 0 0 0 0 0 0 0 0 0 0 0 0 0 0
0 0 0 0 0 0 0 0 0 0 0 0 0 0 0 0 0 0 0 0 0 0 0 0 0 0 0 0 0 0 0 0 0 0 0 0 0 0 0 0 0 0 0 0 0
0 0 0 0 0 0 0 0 0 0 0 0 0 0 0 0 0 0 0 0 0 0 0 0 0 0 0 0 0 0 0 0 0 0 0 0 0 0 0 0 0 0 0 0 0
0 0 0 0 0 0 0 0 0 0 0 0 0 0 0 0 0 0 0 0 0 0 0 0 0 0 0 0 0 0 0 0 0 0 0 0 0 0 0 0 0 0 0 0 0
0 0 0 0 0 0 0 0 0 0 0 0 0 0 0 0 0 0 0 0 0 0 0 0 0 0 0 0 0 0 0 0 0 0 0 0 0 0 0 0 0 0 0 0 0
0 0 0 0 0 0 0 0 0 0 0 0 0 0 0 0 0 0 0 0 0 0 0 0 0 0 0 0 0 0 0 0 0 0 0 0 0 0 0 0 0 0 0 0 0
0 0 0 0 0 0 0 0 0 0 0 0 0 0 0 0 0 0 0 0 0 0 0 0 0 0 0 0 0 0 0 0 0 0 0 0 0 0 0 0 0 0 0 0 0
0 0 0 0 0 0 0 0 0 0 0 0 0 0 0 0 0 0 0 0 0 0 0 0 0 0 0 0 0 0 0 0 0 0 0 0 0 0 0 0 0 0 0 0 0
0 0 0 0 0 0 0 0 0 0 0 0 0 0 0 0 0 0 0 0 0 0 0 0 0 0 0 0 0 0 0 0 0 0 0 0 0 0 0 0 0 0 0 0 0
0 0 0 0 0 0 0 0 0 0 0 0 0 0 0 0 0 0 0 0 0 0 0 0 0 0 0 0 0 0 0 0 0 0 0 0 0 0 0 0 0 0 0 0 0
0 0 0 0 0 0 0 0 0 0 0 0 0 0 0 0 0 0 0 0 0 0 0 0 0 0 0 0 0 0 0 0 0 0 0 0 0 0 0 0 0 0 0 0 0
0 0 0 0 0 0 0 0 0 0 0 0 0 0 0 0 0 0 0 0 0 0 0 0 0 0 0 0 0 0 0 0 0 0 0 0 0 0 0 0 0 0 0 0 0
0 0 0 0 0 0 0 0 0 0 0 0 0 0 0 0 0 0 0 0 0 0 0 0 0 0 0 0 0 0 0 0 0 0 0 0 0 0 0 0 0 0 0 0 0
0 0 0 0 0 0 0 0 0 0 0 0 0 0 0 0 0 0 0 0 0 0 0 0 0 0 0 0 0 0 0 0 0 0 0 0 0 0 0 0 0 0 0 0 0
0 0 0 0 0 0 0 0 0 0 0 0 0 0 0 0 0 0 0 0 0 0 0 0 0 0 0 0 0 0 0 0 0 0 0 0 0 0 0 0 0 0 0 0 0
0 0 0 0 0 0 0 0 0 0 0 0 0 0 0 0 0 0 0 0 0 0 0 0 0 0 0 0 0 0 0 0 0 0 0 0 0 0 0 0 0 0 0 0 0
0 0 0 0 0 0 0 0 0 0 0 0 0 0 0 0 0 0 0 0 0 0 0 0 0 0 0 0 0 0 0 0 0 0 0 0 0 0 0 0 0 0 0 0 0
0 0 0 0 0 0 0 0 0 0 0 0 0 0 0 0 0 0 0 0 0 0 0 0 0 0 0 0 0 0 0 0 0 0 0 0 0 0 0 0 0 0 0 0 0
0 0 0 0 0 0 0 0 0 0 0 0 0 0 0 0 0 0 0 0 0 0 0 0 0 0 0 0 0 0 0 0 0 0 0 0 0 0 0 0 0 0 0 0 0
0 0 0 0 0 0 0 0 0 0 0 0 0 0 0 0 0 0 0 0 0 0 0 0 0 0 0 0 0 0 0 0 0 0 0 0 0 0 0 0 0 0 0 0 0
0 0 0 0 0 0 0 0 0 0 0 0 0 0 0 0 0 0 0 0 0 0 0 0 0 0 0 0 0 0 0 0 0 0 0 0 0 0 0 0 0 0 0 0 0
0 0 0 0 0 0 0 0 0 0 0 0 0 0 0 0 0 0 0 0 0 0 0 0 0 0 0 0 0 0 0 0 0 0 0 0 0 0 0 0 0 0 0 0 0
0 0 0 0 0 0 0 0 0 0 0 0 0 0 0 0 0 0 0 0 0 0 0 0 0 0 0 0 0 0 0 0 0 0 0 0 0 0 0 0 0 0 0 0 0
0 0 0 0 0 0 0 0 0 0 0 0 0 0 0 0 0 0 0 0 0 0 0 0 0 0 0 0 0 0 0 0 0 0 0 0 0 0 0 0 0 0 0 0 0
0 0 0 0 0 0 0 0 0 0 0 0 0 0 0 0 0 0 0 0 0 0 0 0 0 0 0 0 0 0 0 0 0 0 0 0 0 0 0 0 0 0 0 0 0
0 0 0 0 0 0 0 0 0 0 0 0 0 0 0 0 0 0 0 0 0 0 0 0 0 0 0 0 0 0 0 0 0 0 0 0 0 0 0 0 0 0 0 0 0
Wind_Speed_500mb
7 6 5 6 6 6 7 7 8 9 11 12 14 16 18 19 22 27 27 9 10 11 9 7 6 4 1 4 2 0 8 3 6 4 9 22 12 10 14 13 15 14 19 25 33
11 9 9 9 9 10 10 11 12 13 14 15 17 19 20 22 24 13 3 4 6 4 7 9 9 4 3 3 5 7 7 13 9 7 7 11 6 23 7 30 40 36 35 26 24
15 14 14 14 13 13 14 15 16 17 18 18 19 20 21 23 22 4 5 6 8 12 13 15 10 5 4 7 11 10 10 9 12 14 13 16 25 8 4 12 47 58 49 39 36
20 19 19 19 19 18 18 18 19 20 20 19 19 19 20 17 7 10 5 4 5 11 12 10 12 9 7 7 13 5 21 25 18 30 17 6 17 19 20 46 47 48 44 37 42
25 25 25 24 23 22 22 21 20 20 20 19 19 19 18 15 19 21 22 19 15 17 20 15 17 13 7 7 3 8 9 17 23 31 33 31 30 24 52 47 30 32 20 22 16
30 28 27 26 25 23 22 21 20 21 22 21 20 19 18 16 21 18 18 16 17 17 23 20 10 10 7 8 7 3 10 24 26 45 35 19 12 1 23 19 25 23 26 23 19
32 29 27 26 26 25 24 23 22 22 22 21 22 21 25 34 24 20 19 16 15 19 21 21 24 14 5 3 7 7 10 15 31 13 8 5 1 13 21 29 26 24 18 13 15
33 31 29 28 27 25 23 23 22 22 23 22 23 21 18 24 21 21 22 24 20 22 21 21 18 12 6 2 10 6 4 6 7 4 2 8 14 18 24 36 31 17 19 21 20
33 31 30 27 25 23 23 24 23 24 26 25 20 16 14 16 18 20 19 14 15 17 19 16 15 9 6 10 7 5 6 10 15 6 5 7 12 24 40 36 39 14 15 24 26
32 31 29 27 24 24 22 24 24 26 26 22 24 9 24 13 13 14 14 13 8 12 11 9 7 6 5 7 10 10 8 9 10 6 3 10 17 23 43 46 8 27 30 30 32
32 31 29 26 22 24 21 20 17 9 23 20 10 10 3 16 15 16 16 17 14 9 8 7 7 13 24 19 8 6 7 12 10 13 5 10 13 17 30 24 35 37 41 45 50
34 31 29 24 22 24 24 14 15 8 17 34 45 47 38 23 12 19 20 20 12 11 11 7 12 25 6 10 13 10 12 14 12 11 1 10 16 13 30 20 30 39 45 49 52
37 33 29 25 23 25 25 24 15 8 10 18 35 24 27 38 19 22 33 18 10 12 15 17 13 11 14 9 10 9 11 9 15 6 5 3 11 4 9 25 35 40 44 45 50
39 36 30 24 23 24 26 20 13 2 6 10 9 10 17 17 9 19 38 15 7 20 11 11 16 12 10 11 11 13 9 13 5 5 7 5 8 8 7 8 16 32 40 41 43
44 42 37 33 19 27 15 20 14 5 10 3 6 11 15 13 18 11 34 13 11 12 13 14 8 9 12 17 17 15 6 9 7 6 3 5 3 10 12 6 7 18 34 37 37
47 51 42 48 47 35 23 22 17 4 16 6 9 10 8 6 6 10 7 8 5 5 4 11 2 8 13 4 10 8 6 11 9 6 2 14 13 7 10 12 14 25 30 33 35
54 58 57 60 64 51 37 26 5 12 4 9 9 9 8 10 7 10 11 10 11 8 9 2 9 3 5 7 5 7 10 5 6 4 10 8 7 7 13 8 35 38 38 32 29
58 63 67 77 66 63 48 7 18 14 14 6 9 8 12 14 9 11 8 6 11 4 6 9 8 16 8 13 14 11 15 10 13 6 7 8 10 5 8 30 51 46 40 31 25
61 63 69 71 70 62 54 16 13 12 12 17 6 8 9 8 9 7 12 9 12 18 15 11 9 3 1 2 10 8 7 4 11 5 5 8 5 5 7 13 29 41 34 28 22
48 61 52 59 51 49 13 19 11 8 9 6 16 12 13 10 13 14 16 8 9 16 5 8 3 2 2 4 7 7 9 6 5 3 10 7 8 8 19 21 15 22 33 31 24
61 38 30 56 54 31 17 14 10 15 13 10 9 7 9 11 12 10 9 4 10 7 12 9 7 5 4 8 13 2 2 5 6 8 10 4 10 1 26 30 27 36 43 35 30
60 9 45 56 10 2 6 8 11 14 13 6 5 11 14 14 12 12 17 14 13 19 12 1 8 6 12 3 4 3 9 11 8 9 9 2 16 10 25 41 46 45 41 36 30
30 10 55 54 15 14 6 9 9 7 12 14 16 12 9 12 6 13 10 2 4 12 19 13 2 3 14 8 2 7 5 6 7 6 12 10 11 5 18 22 37 31 35 35 35
17 7 7 20 12 13 13 10 10 27 11 9 5 10 9 13 11 10 12 2 3 2 2 12 8 15 22 9 6 7 7 8 9 6 5 12 9 4 11 15 20 19 28 34 34
5 10 13 6 12 14 15 9 22 13 15 42 14 27 16 12 11 15 6 3 5 5 5 7 13 6 4 6 6 9 11 17 15 11 13 13 19 27 21 16 30 36 32 37 35
13 6 8 3 12 21 21 18 21 18 15 11 20 19 19 28 17 13 14 9 11 4 4 4 6 6 4 8 10 12 26 17 21 25 21 27 40 23 12 26 24 27 38 40 31
30 25 16 14 7 12 12 24 22 19 10 12 26 12 16 22 12 7 9 16 16 15 12 9 11 6 10 7 9 16 17 31 22 17 18 23 29 5 11 18 31 33 34 32 25
Wind_Direction_500mb
245 246 254 264 266 277 286 295 299 305 311 314 316 319 321 322 319 317 313 281 263 262 262 214 193 224 282 116 96 187 60 256 249 18 297 335 1 353 326 296 298 265 263 292 302
249 251 258 264 273 282 290 296 300 304 305 308 310 312 314 317 318 317 7 61 132 149 152 153 156 146 119 157 183 114 123 226 211 173 273 297 274 308 311 304 296 292 300 288 290
258 259 261 267 272 279 286 291 295 296 297 299 301 304 309 316 320 196 145 105 120 144 151 160 182 176 197 202 192 173 192 217 264 268 289 307 297 259 205 288 293 299 308 301 296
260 263 268 271 275 279 280 282 285 287 290 294 298 300 301 305 286 194 207 261 252 225 208 212 211 182 194 214 209 171 244 242 268 284 295 279 295 303 271 278 307 310 308 297 294
264 269 271 272 272 272 275 277 280 284 287 290 290 290 288 271 254 253 261 262 253 237 221 227 202 189 191 218 270 216 268 261 264 280 282 283 268 272 281 293 303 333 336 357 349
260 263 267 269 270 270 271 273 277 281 286 290 287 281 267 243 264 250 256 256 246 227 222 218 203 187 252 237 196 235 298 290 289 278 277 264 284 277 284 311 312 314 359 360 3
256 257 259 261 263 265 269 272 274 279 282 284 283 275 262 264 263 249 248 250 241 230 223 215 216 222 167 289 326 317 323 317 279 276 224 194 140 232 296 298 289 324 3 34 34
260 257 255 256 260 262 264 267 272 278 281 280 279 272 254 262 248 248 254 256 240 226 225 218 217 237 229 289 343 330 25 335 285 145 147 133 257 272 314 294 291 23 71 78 74
258 258 258 256 257 259 264 270 275 280 280 278 271 240 256 244 234 239 240 232 219 220 220 222 214 208 153 97 1 343 233 212 308 260 125 174 244 259 287 295 295 112 94 90 90
256 256 252 252 255 259 262 270 276 277 269 264 242 253 236 224 210 209 210 197 194 174 158 169 154 103 54 106 220 205 219 249 246 272 105 245 250 270 291 296 333 118 100 90 80
253 252 254 255 259 263 262 276 274 256 228 216 212 216 190 203 205 206 203 195 173 168 158 174 115 204 207 201 174 195 212 239 259 264 271 264 278 3 15 49 99 97 96 89 83
244 244 245 246 251 263 268 251 245 263 291 247 248 248 246 234 231 219 203 179 172 190 130 56 224 232 187 173 215 235 241 247 260 244 263 288 306 43 38 51 81 99 96 96 95
241 235 235 240 255 259 260 247 256 284 262 267 240 238 240 234 231 224 192 192 169 184 192 173 221 188 176 208 204 222 214 231 232 331 286 347 294 62 49 73 87 96 104 98 91
235 237 235 241 260 246 238 225 215 275 286 254 221 212 173 166 218 193 188 183 202 200 187 227 241 192 178 223 176 267 211 216 194 82 238 48 280 206 166 85 75 99 98 93 90
239 236 235 234 231 212 222 191 179 132 285 204 162 160 163 180 142 180 187 191 189 194 130 238 204 171 194 224 163 221 151 152 160 171 42 307 123 269 135 166 130 101 99 94 83
243 239 232 233 229 225 196 177 145 95 245 205 141 166 134 190 165 121 164 188 195 196 210 233 264 182 205 139 175 133 57 36 46 100 274 211 164 246 193 190 146 127 116 109 101
239 239 233 234 238 215 192 164 134 216 308 196 192 169 183 171 184 162 163 178 165 132 229 227 228 251 171 124 45 100 80 316 338 348 232 148 144 261 316 143 153 144 133 120 109
243 244 236 235 233 204 178 169 215 179 205 156 145 134 183 157 209 183 137 219 221 153 122 185 282 168 190 194 181 177 160 165 210 214 248 298 244 276 47 106 130 138 136 132 123
241 239 223 214 216 200 177 205 216 190 183 154 99 158 217 215 157 146 196 210 222 174 181 177 267 121 142 164 136 181 177 189 101 38 44 228 76 94 106 116 134 143 149 152 150
234 216 214 204 200 203 209 201 211 217 124 114 176 172 180 199 164 178 187 201 213 194 193 220 244 346 172 120 48 152 161 78 12 230 251 278 253 204 189 178 174 169 173 178 174
215 193 209 211 188 182 212 213 192 173 146 150 194 166 197 162 188 208 213 242 183 150 153 154 148 250 128 195 189 57 214 82 133 144 193 260 254 2 183 177 179 193 197 193 188
187 185 179 184 161 188 185 192 181 144 213 183 195 201 195 185 181 219 216 218 175 157 157 3 122 181 199 354 338 298 212 166 158 242 241 174 260 333 168 175 183 198 203 203 206
169 151 174 187 191 192 183 239 190 163 165 188 201 192 172 171 174 221 211 260 202 191 160 178 199 17 343 343 22 203 200 141 113 108 212 174 258 59 144 170 196 204 202 201 198
149 138 202 210 149 182 174 195 202 208 188 155 217 159 168 198 215 214 183 154 10 136 50 137 171 176 227 191 144 169 178 179 141 139 178 231 292 160 221 203 216 226 217 204 202
241 163 159 212 193 161 165 167 212 200 208 196 202 207 179 205 195 210 126 126 13 123 71 156 203 132 206 141 172 213 182 194 198 193 193 253 227 243 207 227 267 274 219 196 196
177 169 159 169 206 190 175 195 204 209 171 213 222 189 191 219 190 186 142 187 188 124 128 356 201 101 307 251 244 270 261 184 218 237 244 253 264 261 178 214 222 218 195 191 192
193 182 159 172 168 202 213 210 212 171 227 224 215 154 199 223 168 119 155 151 159 155 167 143 133 95 260 13 46 304 236 220 221 200 209 223 243 137 179 175 179 171 178 185 210
Wind_Speed_850mb
7 6 5 6 6 6 7 7 8 9 11 12 14 16 18 19 22 27 27 9 10 11 9 7 6 4 1 4 2 0 8 3 6 4 9 22 12 10 14 13 15 14 19 25 33
11 9 9 9 9 10 10 11 12 13 14 15 17 19 20 22 24 13 3 4 6 4 7 9 9 4 3 3 5 7 7 13 9 7 7 11 6 23 7 30 40 36 35 26 24
15 14 14 14 13 13 14 15 16 17 18 18 19 20 21 23 22 4 5 6 8 12 13 15 10 5 4 7 11 10 10 9 12 14 13 16 25 8 4 12 47 58 49 39 36
20 19 19 19 19 18 18 18 19 20 20 19 19 19 20 17 7 10 5 4 5 11 12 10 12 9 7 7 13 5 21 25 18 30 17 6 17 19 20 46 47 48 44 37 42
25 25 25 24 23 22 22 21 20 20 20 19 19 19 18 15 19 21 22 19 15 17 20 15 17 13 7 7 3 8 9 17 23 31 33 31 30 24 52 47 30 32 20 22 16
30 28 27 26 25 23 22 21 20 21 22 21 20 19 18 16 21 18 18 16 17 17 23 20 10 10 7 8 7 3 10 24 26 45 35 19 12 1 23 19 25 23 26 23 19
32 29 27 26 26 25 24 23 22 22 22 21 22 21 25 34 24 20 19 16 15 19 21 21 24 14 5 3 7 7 10 15 31 13 8 5 1 13 21 29 26 24 18 13 15
33 31 29 28 27 25 23 23 22 22 23 22 23 21 18 24 21 21 22 24 20 22 21 21 18 12 6 2 10 6 4 6 7 4 2 8 14 18 24 36 31 17 19 21 20
33 31 30 27 25 23 23 24 23 24 26 25 20 16 14 16 18 20 19 14 15 17 19 16 15 9 6 10 7 5 6 10 15 6 5 7 12 24 40 36 39 14 15 24 26
32 31 29 27 24 24 22 24 24 26 26 22 24 9 24 13 13 14 14 13 8 12 11 9 7 6 5 7 10 10 8 9 10 6 3 10 17 23 43 46 8 27 30 30 32
32 31 29 26 22 24 21 20 17 9 23 20 10 10 3 16 15 16 16 17 14 9 8 7 7 13 24 19 8 6 7 12 10 13 5 10 13 17 30 24 35 37 41 45 50
34 31 29 24 22 24 24 14 15 8 17 34 45 47 38 23 12 19 20 20 12 11 11 7 12 25 6 10 13 10 12 14 12 11 1 10 16 13 30 20 30 39 45 49 52
37 33 29 25 23 25 25 24 15 8 10 18 35 24 27 38 19 22 33 18 10 12 15 17 13 11 14 9 10 9 11 9 15 6 5 3 11 4 9 25 35 40 44 45 50
39 36 30 24 23 24 26 20 13 2 6 10 9 10 17 17 9 19 38 15 7 20 11 11 16 12 10 11 11 13 9 13 5 5 7 5 8 8 7 8 16 32 40 41 43
44 42 37 33 19 27 15 20 14 5 10 3 6 11 15 13 18 11 34 13 11 12 13 14 8 9 12 17 17 15 6 9 7 6 3 5 3 10 12 6 7 18 34 37 37
47 51 42 48 47 35 23 22 17 4 16 6 9 10 8 6 6 10 7 8 5 5 4 11 2 8 13 4 10 8 6 11 9 6 2 14 13 7 10 12 14 25 30 33 35
54 58 57 60 64 51 37 26 5 12 4 9 9 9 8 10 7 10 11 10 11 8 9 2 9 3 5 7 5 7 10 5 6 4 10 8 7 7 13 8 35 38 38 32 29
58 63 67 77 66 63 48 7 18 14 14 6 9 8 12 14 9 11 8 6 11 4 6 9 8 16 8 13 14 11 15 10 13 6 7 8 10 5 8 30 51 46 40 31 25
61 63 69 71 70 62 54 16 13 12 12 17 6 8 9 8 9 7 12 9 12 18 15 11 9 3 1 2 10 8 7 4 11 5 5 8 5 5 7 13 29 41 34 28 22
48 61 52 59 51 49 13 19 11 8 9 6 16 12 13 10 13 14 16 8 9 16 5 8 3 2 2 4 7 7 9 6 5 3 10 7 8 8 19 21 15 22 33 31 24
61 38 30 56 54 31 17 14 10 15 13 10 9 7 9 11 12 10 9 4 10 7 12 9 7 5 4 8 13 2 2 5 6 8 10 4 10 1 26 30 27 36 43 35 30
60 9 45 56 10 2 6 8 11 14 13 6 5 11 14 14 12 12 17 14 13 19 12 1 8 6 12 3 4 3 9 11 8 9 9 2 16 10 25 41 46 45 41 36 30
30 10 55 54 15 14 6 9 9 7 12 14 16 12 9 12 6 13 10 2 4 12 19 13 2 3 14 8 2 7 5 6 7 6 12 10 11 5 18 22 37 31 35 35 35
17 7 7 20 12 13 13 10 10 27 11 9 5 10 9 13 11 10 12 2 3 2 2 12 8 15 22 9 6 7 7 8 9 6 5 12 9 4 11 15 20 19 28 34 34
5 10 13 6 12 14 15 9 22 13 15 42 14 27 16 12 11 15 6 3 5 5 5 7 13 6 4 6 6 9 11 17 15 11 13 13 19 27 21 16 30 36 32 37 35
13 6 8 3 12 21 21 18 21 18 15 11 20 19 19 28 17 13 14 9 11 4 4 4 6 6 4 8 10 12 26 17 21 25 21 27 40 23 12 26 24 27 38 40 31
30 25 16 14 7 12 12 24 22 19 10 12 26 12 16 22 12 7 9 16 16 15 12 9 11 6 10 7 9 16 17 31 22 17 18 23 29 5 11 18 31 33 34 32 25
Wind_Direction_850mb
245 246 254 264 266 277 286 295 299 305 311 314 316 319 321 322 319 317 313 281 263 262 262 214 193 224 282 116 96 187 60 256 249 18 297 335 1 353 326 296 298 265 263 292 302
249 251 258 264 273 282 290 296 300 304 305 308 310 312 314 317 318 317 7 61 132 149 152 153 156 146 119 157 183 114 123 226 211 173 273 297 274 308 311 304 296 292 300 288 290
258 259 261 267 272 279 286 291 295 296 297 299 301 304 309 316 320 196 145 105 120 144 151 160 182 176 197 202 192 173 192 217 264 268 289 307 297 259 205 288 293 299 308 301 296
260 263 268 271 275 279 280 282 285 287 290 294 298 300 301 305 286 194 207 261 252 225 208 212 211 182 194 214 209 171 244 242 268 284 295 279 295 303 271 278 307 310 308 297 294
264 269 271 272 272 272 275 277 280 284 287 290 290 290 288 271 254 253 261 262 253 237 221 227 202 189 191 218 270 216 268 261 264 280 282 283 268 272 281 293 303 333 336 357 349
260 263 267 269 270 270 271 273 277 281 286 290 287 281 267 243 264 250 256 256 246 227 222 218 203 187 252 237 196 235 298 290 289 278 277 264 284 277 284 311 312 314 359 360 3
256 257 259 261 263 265 269 272 274 279 282 284 283 275 262 264 263 249 248 250 241 230 223 215 216 222 167 289 326 317 323 317 279 276 224 194 140 232 296 298 289 324 3 34 34
260 257 255 256 260 262 264 267 272 278 281 280 279 272 254 262 248 248 254 256 240 226 225 218 217 237 229 289 343 330 25 335 285 145 147 133 257 272 314 294 291 23 71 78 74
258 258 258 256 257 259 264 270 275 280 280 278 271 240 256 244 234 239 240 232 219 220 220 222 214 208 153 97 1 343 233 212 308 260 125 174 244 259 287 295 295 112 94 90 90
256 256 252 252 255 259 262 270 276 277 269 264 242 253 236 224 210 209 210 197 194 174 158 169 154 103 54 106 220 205 219 249 246 272 105 245 250 270 291 296 333 118 100 90 80
253 252 254 255 259 263 262 276 274 256 228 216 212 216 190 203 205 206 203 195 173 168 158 174 115 204 207 201 174 195 212 239 259 264 271 264 278 3 15 49 99 97 96 89 83
244 244 245 246 251 263 268 251 245 263 291 247 248 248 246 234 231 219 203 179 172 190 130 56 224 232 187 173 215 235 241 247 260 244 263 288 306 43 38 51 81 99 96 96 95
241 235 235 240 255 259 260 247 256 284 262 267 240 238 240 234 231 224 192 192 169 184 192 173 221 188 176 208 204 222 214 231 232 331 286 347 294 62 49 73 87 96 104 98 91
235 237 235 241 260 246 238 225 215 275 286 254 221 212 173 166 218 193 188 183 202 200 187 227 241 192 178 223 176 267 211 216 194 82 238 48 280 206 166 85 75 99 98 93 90
239 236 235 234 231 212 222 191 179 132 285 204 162 160 163 180 142 180 187 191 189 194 130 238 204 171 194 224 163 221 151 152 160 171 42 307 123 269 135 166 130 101 99 94 83
243 239 232 233 229 225 196 177 145 95 245 205 141 166 134 190 165 121 164 188 195 196 210 233 264 182 205 139 175 133 57 36 46 100 274 211 164 246 193 190 146 127 116 109 101
239 239 233 234 238 215 192 164 134 216 308 196 192 169 183 171 184 162 163 178 165 132 229 227 228 251 171 124 45 100 80 316 338 348 232 148 144 261 316 143 153 144 133 120 109
243 244 236 235 233 204 178 169 215 179 205 156 145 134 183 157 209 183 137 219 221 153 122 185 282 168 190 194 181 177 160 165 210 214 248 298 244 276 47 106 130 138 136 132 123
241 239 223 214 216 200 177 205 216 190 183 154 99 158 217 215 157 146 196 210 222 174 181 177 267 121 142 164 136 181 177 189 101 38 44 228 76 94 106 116 134 143 149 152 150
234 216 214 204 200 203 209 201 211 217 124 114 176 172 180 199 164 178 187 201 213 194 193 220 244 346 172 120 48 152 161 78 12 230 251 278 253 204 189 178 174 169 173 178 174
215 193 209 211 188 182 212 213 192 173 146 150 194 166 197 162 188 208 213 242 183 150 153 154 148 250 128 195 189 57 214 82 133 144 193 260 254 2 183 177 179 193 197 193 188
187 185 179 184 161 188 185 192 181 144 213 183 195 201 195 185 181 219 216 218 175 157 157 3 122 181 199 354 338 298 212 166 158 242 241 174 260 333 168 175 183 198 203 203 206
169 151 174 187 191 192 183 239 190 163 165 188 201 192 172 171 174 221 211 260 202 191 160 178 199 17 343 343 22 203 200 141 113 108 212 174 258 59 144 170 196 204 202 201 198
149 138 202 210 149 182 174 195 202 208 188 155 217 159 168 198 215 214 183 154 10 136 50 137 171 176 227 191 144 169 178 179 141 139 178 231 292 160 221 203 216 226 217 204 202
241 163 159 212 193 161 165 167 212 200 208 196 202 207 179 205 195 210 126 126 13 123 71 156 203 132 206 141 172 213 182 194 198 193 193 253 227 243 207 227 267 274 219 196 196
177 169 159 169 206 190 175 195 204 209 171 213 222 189 191 219 190 186 142 187 188 124 128 356 201 101 307 251 244 270 261 184 218 237 244 253 264 261 178 214 222 218 195 191 192
193 182 159 172 168 202 213 210 212 171 227 224 215 154 199 223 168 119 155 151 159 155 167 143 133 95 260 13 46 304 236 220 221 200 209 223 243 137 179 175 179 171 178 185 210